Ogallala, NE

2:38 PM MDT on April 25, 2017 (GMT -0600)
Searle

Weather History for KOGA - October, 2012

Change the Weather History Date:

Saturday, October 20, 2012

  Actual Average Record
Temperature  
Mean Temperature 58 °F -  
Max Temperature 83 °F 64 °F 87 °F (2007)
Min Temperature 35 °F 31 °F 18 °F (1982)
Degree Days  
Heating Degree Days 6    
Growing Degree Days 8 (Base 50)    
Moisture  
Dew Point 26 °F    
Average Humidity 36    
Maximum Humidity 70    
Minimum Humidity 12    
Precipitation  
Precipitation 0.00 in - - ()
Sea Level Pressure  
Sea Level Pressure 29.69 in    
Wind  
Wind Speed 5 mph (WSW)    
Max Wind Speed 14 mph    
Max Gust Speed 21 mph    
Visibility 10 miles    
Events      
Averages and records for this station are not official NWS values.
T = Trace of Precipitation, MM = Missing Value Source: NWS Daily Summary

Daily Weather History Graph

Daily Weather History Graph

Search for Another Location

Airport or City:

Trip Planner

Search our weather history database for the weather conditions in past years. The results will help you decide how hot, cold, wet, or windy it might be!

Date:

Astronomy

Oct. 20, 2012 Rise Set
Actual Time 7:04 AM MDT 5:58 PM MDT
Civil Twilight 6:36 AM MDT 6:26 PM MDT
Nautical Twilight 6:04 AM MDT 6:58 PM MDT
Astronomical Twilight 5:32 AM MDT 7:29 PM MDT
Moon 12:43 PM MDT (10/20) 10:44 PM MDT (10/20)
Length of Visible Light 11h 49m
Length of Day
10h 53m
Waxing Crescent, 35% of the Moon is Illuminated
Oct 20
Waxing Crescent
Oct 21
First Quarter
Oct 29
Full
Nov 6
Last Quarter
Nov 13
New

Hourly Weather History & Observations

Time (MDT) Temp. Windchill Dew Point Humidity Pressure Visibility Wind Dir Wind Speed Gust Speed Precip Events Conditions
12:15 AM 44.2 °F 42.7 °F 25.9 °F 49% 29.75 in 10.0 mi SW 3.5 mph - N/A   Clear
12:35 AM 40.8 °F - 24.4 °F 52% 29.75 in 10.0 mi Calm Calm - N/A   Clear
12:55 AM 41.2 °F 38.2 °F 25.0 °F 53% 29.75 in 10.0 mi WSW 4.6 mph - N/A   Clear
1:15 AM 38.8 °F - 25.2 °F 58% 29.75 in 10.0 mi Calm Calm - N/A   Clear
1:35 AM 39.0 °F 34.8 °F 24.8 °F 57% 29.75 in 10.0 mi West 5.8 mph - N/A   Clear
1:55 AM 36.9 °F 31.4 °F 25.2 °F 63% 29.75 in 10.0 mi West 6.9 mph - N/A   Clear
2:15 AM 36.9 °F 31.4 °F 25.9 °F 64% 29.75 in 10.0 mi WSW 6.9 mph - N/A   Clear
2:35 AM 38.5 °F 32.7 °F 26.6 °F 62% 29.75 in 10.0 mi WSW 8.1 mph - N/A   Clear
2:55 AM 38.5 °F 32.7 °F 26.6 °F 62% 29.74 in 10.0 mi West 8.1 mph - N/A   Clear
3:15 AM 38.1 °F - 27.0 °F 64% 29.74 in 10.0 mi Calm Calm - N/A   Clear
3:35 AM 37.8 °F 32.5 °F 27.0 °F 65% 29.73 in 10.0 mi West 6.9 mph - N/A   Clear
3:55 AM 37.4 °F - 26.6 °F 65% 29.73 in 10.0 mi Calm Calm - N/A   Clear
4:15 AM 36.3 °F 32.5 °F 27.0 °F 69% 29.73 in 10.0 mi West 4.6 mph - N/A   Clear
4:35 AM 35.8 °F 31.9 °F 26.6 °F 69% 29.74 in 10.0 mi West 4.6 mph - N/A   Clear
4:55 AM 35.6 °F 29.2 °F 26.6 °F 70% 29.73 in 10.0 mi WSW 8.1 mph - N/A   Clear
5:15 AM 37.6 °F - 26.8 °F 65% 29.73 in 10.0 mi Calm Calm - N/A   Clear
5:35 AM 38.3 °F - 27.3 °F 65% 29.74 in 10.0 mi Calm Calm - N/A   Clear
5:55 AM 37.6 °F 31.6 °F 27.3 °F 66% 29.74 in 10.0 mi WSW 8.1 mph - N/A   Clear
6:15 AM 38.5 °F 32.1 °F 27.3 °F 64% 29.74 in 10.0 mi WSW 9.2 mph - N/A   Clear
6:35 AM 37.8 °F 31.8 °F 27.1 °F 66% 29.74 in 10.0 mi WSW 8.1 mph - N/A   Clear
6:55 AM 37.6 °F 32.3 °F 27.0 °F 66% 29.74 in 10.0 mi WSW 6.9 mph - N/A   Clear
7:15 AM 36.0 °F 30.3 °F 26.6 °F 69% 29.75 in 10.0 mi West 6.9 mph - N/A   Clear
7:35 AM 36.5 °F 32.7 °F 27.3 °F 69% 29.75 in 10.0 mi WSW 4.6 mph - N/A   Clear
7:55 AM 39.0 °F - 27.3 °F 63% 29.75 in 10.0 mi Calm Calm - N/A   Clear
8:15 AM 42.1 °F 39.2 °F 28.0 °F 58% 29.76 in 10.0 mi WSW 4.6 mph - N/A   Clear
8:35 AM 45.9 °F 44.6 °F 28.8 °F 51% 29.76 in 10.0 mi SW 3.5 mph - N/A   Clear
8:55 AM 50.0 °F - 28.6 °F 44% 29.76 in 10.0 mi WSW 5.8 mph - N/A   Clear
9:15 AM 53.6 °F - 28.4 °F 38% 29.76 in 10.0 mi WSW 9.2 mph - N/A   Clear
9:35 AM 57.0 °F - 28.9 °F 34% 29.75 in 10.0 mi WSW 9.2 mph - N/A   Clear
9:55 AM 60.1 °F - 29.3 °F 31% 29.76 in 10.0 mi WSW 8.1 mph - N/A   Clear
10:15 AM 63.1 °F - 29.5 °F 28% 29.75 in 10.0 mi WSW 8.1 mph - N/A   Clear
10:35 AM 64.9 °F - 28.9 °F 26% 29.75 in 10.0 mi West 8.1 mph - N/A   Clear
10:55 AM 68.0 °F - 28.6 °F 23% 29.74 in 10.0 mi WSW 8.1 mph - N/A   Clear
11:15 AM 70.2 °F - 28.4 °F 21% 29.73 in 10.0 mi SW 8.1 mph - N/A   Clear
11:35 AM 74.1 °F - 27.5 °F 18% 29.72 in 10.0 mi WSW 8.1 mph - N/A   Clear
11:55 AM 76.5 °F - 26.2 °F 16% 29.71 in 10.0 mi SW 8.1 mph - N/A   Clear
12:15 PM 78.1 °F - 25.7 °F 14% 29.70 in 10.0 mi WSW 8.1 mph - N/A   Clear
12:35 PM 80.6 °F - 24.1 °F 12% 29.68 in 10.0 mi West 9.2 mph 19.6 mph N/A   Clear
12:55 PM 81.0 °F - 23.7 °F 12% 29.68 in 10.0 mi West 10.4 mph 19.6 mph N/A   Clear
1:15 PM 82.0 °F - 24.1 °F 12% 29.66 in 10.0 mi West 10.4 mph 18.4 mph N/A   Clear
1:35 PM 82.6 °F - 23.9 °F 12% 29.65 in 10.0 mi WNW 13.8 mph 19.6 mph N/A   Clear
1:55 PM 82.9 °F - 24.1 °F 12% 29.64 in 10.0 mi WNW 9.2 mph - N/A   Clear
2:15 PM 80.2 °F - 24.1 °F 13% 29.64 in 10.0 mi West 5.8 mph - N/A   Clear
2:35 PM 81.7 °F - 24.1 °F 12% 29.63 in 10.0 mi West 10.4 mph - N/A   Clear
2:55 PM 82.8 °F - 24.1 °F 12% 29.63 in 10.0 mi WSW 11.5 mph 16.1 mph N/A   Clear
3:15 PM 81.3 °F - 23.7 °F 12% 29.63 in 10.0 mi WSW 5.8 mph - N/A   Clear
3:35 PM 80.2 °F - 24.1 °F 13% 29.63 in 10.0 mi WSW 5.8 mph - N/A   Clear
3:55 PM 80.8 °F - 24.1 °F 12% 29.63 in 10.0 mi SW 5.8 mph - N/A   Clear
4:15 PM 80.6 °F - 24.4 °F 13% 29.63 in 10.0 mi SW 3.5 mph - N/A   Clear
4:35 PM 81.1 °F - 24.4 °F 12% 29.62 in 10.0 mi Calm Calm - N/A   Clear
4:55 PM 79.7 °F - 25.0 °F 13% 29.62 in 10.0 mi WSW 4.6 mph - N/A   Clear
5:15 PM 77.2 °F - 24.8 °F 14% 29.62 in 10.0 mi West 4.6 mph - N/A   Clear
5:35 PM 73.6 °F - 26.8 °F 18% 29.62 in 10.0 mi SW 3.5 mph - N/A   Clear
5:55 PM 69.1 °F - 27.5 °F 21% 29.62 in 7.0 mi Calm Calm - N/A   Clear
6:15 PM 64.2 °F - 24.1 °F 22% 29.62 in 7.0 mi Calm Calm - N/A   Clear
6:35 PM 64.9 °F - 23.5 °F 21% 29.63 in 10.0 mi Calm Calm - N/A   Clear
6:55 PM 59.9 °F - 24.4 °F 26% 29.63 in 10.0 mi Calm Calm - N/A   Clear
7:15 PM 57.4 °F - 24.6 °F 28% 29.63 in 10.0 mi Calm Calm - N/A   Clear
7:35 PM 55.9 °F - 23.5 °F 29% 29.64 in 10.0 mi Calm Calm - N/A   Clear
7:55 PM 54.1 °F - 23.5 °F 31% 29.63 in 10.0 mi WSW 3.5 mph - N/A   Clear
8:15 PM 57.7 °F - 24.8 °F 28% 29.63 in 10.0 mi SW 3.5 mph - N/A   Clear
8:35 PM 58.6 °F - 25.5 °F 28% 29.63 in 10.0 mi SW 3.5 mph - N/A   Clear
8:55 PM 60.1 °F - 25.3 °F 27% 29.64 in 10.0 mi Calm Calm - N/A   Clear
9:15 PM 60.6 °F - 24.3 °F 25% 29.63 in 10.0 mi South 4.6 mph - N/A   Clear
9:35 PM 57.9 °F - 23.9 °F 27% 29.63 in 10.0 mi Calm Calm - N/A   Clear
9:55 PM 59.9 °F - 24.3 °F 26% 29.63 in 10.0 mi Calm Calm - N/A   Clear
10:15 PM 63.1 °F - 23.9 °F 22% 29.64 in 10.0 mi SSW 6.9 mph - N/A   Clear
10:35 PM 61.7 °F - 24.6 °F 24% 29.64 in 10.0 mi SSW 9.2 mph - N/A   Clear
10:55 PM 61.0 °F - 24.6 °F 25% 29.65 in 10.0 mi WSW 5.8 mph - N/A   Clear
11:15 PM 63.9 °F - 23.0 °F 21% 29.65 in 10.0 mi SSW 13.8 mph 20.7 mph N/A   Clear
11:35 PM 58.5 °F - 24.1 °F 27% 29.66 in 10.0 mi West 5.8 mph - N/A   Clear
11:55 PM 58.5 °F - 23.7 °F 26% 29.66 in 10.0 mi SSW 4.6 mph - N/A   Clear